TimeCST,TemperatureF,Dew PointF,Humidity,Sea Level PressureIn,VisibilityMPH,Wind Direction,Wind SpeedMPH,Gust SpeedMPH,PrecipitationIn,Events,Conditions,WindDirDegrees,DateUTC
12:54 AM,21.9,15.1,75,30.14,10.0,SE,3.5,-,N/A,,Clear,140,2012-12-27 06:54:00
1:54 AM,25.0,16.0,69,30.11,10.0,ESE,9.2,-,N/A,,Clear,120,2012-12-27 07:54:00
2:54 AM,25.0,17.1,72,30.11,10.0,ESE,6.9,-,N/A,,Clear,120,2012-12-27 08:54:00
3:54 AM,24.1,17.1,75,30.09,10.0,SE,6.9,-,N/A,,Clear,130,2012-12-27 09:54:00
4:54 AM,23.0,17.1,78,30.06,10.0,ESE,5.8,-,N/A,,Clear,110,2012-12-27 10:54:00
5:54 AM,23.0,18.0,81,30.00,10.0,ESE,11.5,-,N/A,,Clear,120,2012-12-27 11:54:00
6:54 AM,23.0,18.0,81,30.01,10.0,SE,12.7,-,N/A,,Clear,130,2012-12-27 12:54:00
7:54 AM,23.0,18.0,81,30.02,9.0,SE,11.5,-,N/A,,Clear,130,2012-12-27 13:54:00
8:54 AM,24.1,19.0,81,30.01,9.0,SSE,12.7,-,N/A,,Clear,150,2012-12-27 14:54:00
9:39 AM,26.6,21.2,80,29.98,10.0,SSE,12.7,-,N/A,,Mostly Cloudy,150,2012-12-27 15:39:00
9:54 AM,27.0,21.0,78,30.01,10.0,SSE,15.0,-,N/A,,Overcast,150,2012-12-27 15:54:00
10:54 AM,30.9,23.0,72,30.00,10.0,South,17.3,23.0,N/A,,Mostly Cloudy,170,2012-12-27 16:54:00
11:54 AM,32.0,24.1,73,29.97,10.0,SSE,12.7,-,N/A,,Mostly Cloudy,150,2012-12-27 17:54:00
12:05 PM,35.6,24.8,65,29.93,10.0,South,15.0,20.7,N/A,,Scattered Clouds,170,2012-12-27 18:05:00
12:54 PM,34.0,24.1,67,29.94,10.0,SSE,11.5,-,N/A,,Partly Cloudy,160,2012-12-27 18:54:00
1:50 PM,35.6,24.8,65,29.88,10.0,South,13.8,-,N/A,,Mostly Cloudy,180,2012-12-27 19:50:00
1:54 PM,35.1,24.1,64,29.91,10.0,SSE,13.8,-,N/A,,Mostly Cloudy,160,2012-12-27 19:54:00
2:54 PM,37.0,24.1,59,29.90,10.0,SSE,8.1,-,N/A,,Scattered Clouds,150,2012-12-27 20:54:00
3:04 PM,35.6,24.8,65,29.87,10.0,SSE,6.9,-,N/A,,Mostly Cloudy,160,2012-12-27 21:04:00
3:16 PM,37.4,24.8,60,29.87,10.0,SSE,9.2,-,N/A,,Mostly Cloudy,160,2012-12-27 21:16:00
3:54 PM,37.0,24.1,59,29.90,10.0,South,9.2,-,N/A,,Scattered Clouds,170,2012-12-27 21:54:00
4:54 PM,36.0,23.0,59,29.91,10.0,South,8.1,-,N/A,,Mostly Cloudy,180,2012-12-27 22:54:00
6:54 PM,32.0,23.0,69,29.94,10.0,SE,4.6,-,N/A,,Overcast,130,2012-12-28 00:54:00
7:54 PM,30.9,23.0,72,29.96,10.0,SE,4.6,-,N/A,,Overcast,140,2012-12-28 01:54:00
8:54 PM,30.9,24.1,76,29.97,10.0,South,5.8,-,N/A,,Overcast,180,2012-12-28 02:54:00
9:54 PM,30.9,24.1,76,29.98,10.0,South,5.8,-,N/A,,Overcast,190,2012-12-28 03:54:00
10:54 PM,30.9,24.1,76,29.99,10.0,South,6.9,-,N/A,,Overcast,170,2012-12-28 04:54:00
11:44 PM,30.2,24.8,80,29.96,10.0,SW,5.8,-,N/A,,Overcast,220,2012-12-28 05:44:00
11:54 PM,30.0,25.0,82,29.99,10.0,SW,5.8,-,N/A,,Overcast,220,2012-12-28 05:54:00